Change the Weather History Date:

Sunday, October 12, 2014

  Actual Average Record
Temperature  
Mean Temperature 54 °F 52 °F  
Max Temperature 64 °F 67 °F 94 °F (1975)
Min Temperature 43 °F 38 °F 17 °F (1909)
Degree Days  
Heating Degree Days 11 13  
Month to date heating degree days 111 126  
Cooling Degree Days 0 0  
Month to date cooling degree days 0 3  
Year to date cooling degree days 955 960  
Growing Degree Days 4 (Base 50)    
Moisture  
Dew Point 42 °F    
Average Humidity 71    
Maximum Humidity 93    
Minimum Humidity 48    
Precipitation  
Precipitation T in 0.05 in 1.26 in (1997)
Sea Level Pressure  
Sea Level Pressure 29.75 in    
Wind  
Wind Speed 16 mph (NNW)    
Max Wind Speed 35 mph    
Max Gust Speed 43 mph    
Visibility 10 miles    
Events      
T = Trace of Precipitation, MM = Missing Value Source: NWS Daily Summary

Daily Weather History Graph

Daily Weather History Graph

Search for Another Location

Airport or City:

Trip Planner

Search our weather history database for the weather conditions in past years. The results will help you decide how hot, cold, wet, or windy it might be!

Date:

Astronomy

Oct. 12, 2014 Rise Set
Actual Time 6:54 AM MDT 6:10 PM MDT
Civil Twilight 6:26 AM MDT 6:38 PM MDT
Nautical Twilight 5:55 AM MDT 7:09 PM MDT
Astronomical Twilight 5:23 AM MDT 7:41 PM MDT
Moon 9:29 PM MDT (10/12) 11:18 AM MDT (10/12)
Length of Visible Light 12h 11m
Length of Day
11h 16m
Waning Gibbous, 79% of the Moon is Illuminated
Oct 12
Waning Gibbous
Oct 15
Last Quarter
Oct 23
New
Oct 30
First Quarter
Nov 6
Full

Hourly Weather History & Observations

Time (MDT) Temp. Windchill Dew Point Humidity Pressure Visibility Wind Dir Wind Speed Gust Speed Precip Events Conditions
12:53 AM 50.0 °F - 44.1 °F 80% 29.75 in 10.0 mi South 11.5 mph - N/A   Scattered Clouds
1:53 AM 50.0 °F - 44.1 °F 80% 29.72 in 10.0 mi South 16.1 mph - N/A   Clear
2:53 AM 50.0 °F - 44.6 °F 82% 29.73 in 10.0 mi SE 9.2 mph - N/A   Partly Cloudy
3:53 AM 48.9 °F - 44.1 °F 83% 29.67 in 10.0 mi South 9.2 mph - N/A   Clear
4:53 AM 46.9 °F - 44.1 °F 90% 29.65 in 10.0 mi South 10.4 mph - N/A   Clear
5:53 AM 48.0 °F - 44.1 °F 86% 29.64 in 10.0 mi SSE 6.9 mph - N/A   Clear
6:53 AM 46.9 °F - 44.1 °F 90% 29.65 in 10.0 mi Calm Calm - N/A   Overcast
7:53 AM 48.0 °F - 44.1 °F 86% 29.64 in 10.0 mi South 6.9 mph - N/A   Mostly Cloudy
8:53 AM 51.1 °F - 45.0 °F 80% 29.62 in 10.0 mi NW 4.6 mph - N/A   Overcast
9:53 AM 55.0 °F - 46.0 °F 72% 29.62 in 10.0 mi ESE 3.5 mph - N/A   Mostly Cloudy
10:53 AM 55.9 °F - 46.9 °F 72% 29.62 in 10.0 mi SSE 9.2 mph - 0.00 in   Overcast
11:53 AM 61.0 °F - 43.0 °F 52% 29.62 in 10.0 mi NNW 11.5 mph - 0.00 in   Overcast
12:53 PM 57.9 °F - 44.1 °F 60% 29.65 in 10.0 mi NW 21.9 mph 26.5 mph N/A   Scattered Clouds
1:53 PM 63.0 °F - 43.0 °F 48% 29.62 in 10.0 mi NNW 24.2 mph 32.2 mph N/A   Clear
2:53 PM 62.6 °F - 42.8 °F 48% 29.68 in 10.0 mi NNW 20.7 mph 31.1 mph N/A   Clear
3:53 PM 59.0 °F - 42.1 °F 53% 29.70 in 10.0 mi NNW 25.3 mph 34.5 mph N/A   Scattered Clouds
4:53 PM 55.0 °F - 42.1 °F 62% 29.75 in 10.0 mi NNW 24.2 mph 32.2 mph N/A   Clear
5:53 PM 54.0 °F - 41.0 °F 62% 29.79 in 10.0 mi NNW 26.5 mph 32.2 mph N/A   Mostly Cloudy
6:53 PM 52.0 °F - 39.9 °F 63% 29.83 in 10.0 mi North 24.2 mph 35.7 mph N/A   Overcast
7:53 PM 50.0 °F - 37.9 °F 63% 29.88 in 10.0 mi North 26.5 mph 34.5 mph N/A   Overcast
8:27 PM 48.0 °F - 37.0 °F 66% 29.90 in 10.0 mi NNW 24.2 mph 34.5 mph N/A   Overcast
8:53 PM 48.0 °F - 36.0 °F 63% 29.92 in 10.0 mi North 26.5 mph 42.6 mph N/A   Overcast
9:26 PM 46.9 °F - 36.0 °F 66% 29.93 in 10.0 mi North 21.9 mph 33.4 mph N/A   Scattered Clouds
9:53 PM 46.0 °F 37.4 °F 36.0 °F 68% 29.94 in 10.0 mi North 25.3 mph 36.8 mph N/A   Clear
10:53 PM 46.0 °F 37.6 °F 37.0 °F 71% 29.92 in 10.0 mi NNW 24.2 mph 34.5 mph N/A   Scattered Clouds
11:53 PM 44.1 °F 37.7 °F 37.0 °F 76% 29.97 in 10.0 mi NNW 12.7 mph - N/A   Clear